Regional Weather Roundup
Issued by NWS

Home | Current Version | Previous Version | Text Only | Print | Product List | Glossary Off
Versions: 1 2 3 4 5 6 7 8 9 10 11 12 13 14 15 16 17 18 19 20 21 22 23 24 25 26 27 28 29 30 31 32 33 34 35 36 37 38 39 40 41 42 43 44 45 46 47 48 49 50

000
ASUS43 KIND 020909
RWRIN

WEATHER ROUNDUP FOR INDIANA
NATIONAL WEATHER SERVICE INDIANAPOLIS IN
500 AM EDT WED SEP 02 2015

NOTE: "FAIR" INDICATES FEW OR NO CLOUDS BELOW 12,000 FEET WITH NO
SIGNIFICANT WEATHER AND/OR OBSTRUCTIONS TO VISIBILITY.

* - STATION DOES NOT REPORT WEATHER SUCH AS PRECIPITATION OR FOG.

+ - STATION NOT QUALITY CONTROLLED BY THE NATIONAL WEATHER SERVICE.
    USE DATA WITH CAUTION...ESPECIALLY DEWPOINT AND RELATIVE
    HUMIDITY OBSERVATIONS.

INZ001>003-010>013-019-020-021000-
NORTHWEST INDIANA

CITY           SKY/WX    TMP DP  RH WIND       PRES   REMARKS
GARY /AIRPORT/ CLEAR     73  67  80 CALM      30.04S
KNOX *+        CLEAR     66  66 100 S6        30.05S
LA PORTE +     PTCLDY   N/A N/A N/A CALM      30.06S HAZE
MICHIGAN CITY+ PTCLDY    70  66  88 SW3       30.05S
MONTICELLO +   PTCLDY    69  69 100 CALM      30.06S
RENSSELAER +   CLEAR     66  66 100 S3        30.06S FOG
VALPARAISO     MOCLDY    70  67  90 SW5       30.06S

$$

LMZ046-743>745-021000-
SOUTHERN LAKE MICHIGAN

STATION/POSITION TIME  TEMP    WIND        PRES    WAVE
                       AIR SEA DIR/SP/G            HT
                 (UTC) (F)     (DEG/KT/KT) (MB)    (FT)
BURNS HARBOR     0800   75     210/ 11/ 16 1017.3F
MICHIGAN CITY    0800   74     180/  9/ 10   N/A
5NW MICH CITY    0900   73 72  220/  6/  6   N/A     1

$$

INZ004-005-014>016-021>024-021000-
NORTH CENTRAL INDIANA

CITY           SKY/WX    TMP DP  RH WIND       PRES   REMARKS
GOSHEN         PTCLDY    70  66  87 CALM      30.06S
LOGANSPORT +   CLEAR     64  63  94 S3        30.08S FOG
PERU/GRISSOM   CLEAR     69  66  92 S5        30.07S
ROCHESTER +    CLEAR     72  70  94 SW3       30.08R
SOUTH BEND     PTCLDY    70  68  93 SW5       30.06S
WARSAW +       PTCLDY    68  68 100 CALM      30.07S

$$

INZ006>009-017-018-025>027-021000-
NORTHEAST INDIANA

CITY           SKY/WX    TMP DP  RH WIND       PRES   REMARKS
AUBURN +       CLEAR     68  64  88 CALM      30.08S
FORT WAYNE     PTCLDY    68  65  90 SW5       30.08S
HUNTINGTON +   PTCLDY    68  64  85 CALM      30.08S

$$

INZ028-029-035-036-043>045-051>053-021000-
WEST CENTRAL INDIANA

CITY           SKY/WX    TMP DP  RH WIND       PRES   REMARKS
CRAWFORDSVL +  CLEAR     63  63 100 CALM      30.09S
GREENCASTLE +  CLEAR     64  63  94 CALM      30.10R FOG
LAFAYETTE      CLEAR     67  66  97 CALM      30.07S
TERRE HAUTE    CLEAR     65  63  93 CALM      30.09R FOG

$$

INZ030>032-037>040-046>048-054>057-064-065-021000-
CENTRAL INDIANA

CITY           SKY/WX    TMP DP  RH WIND       PRES   REMARKS
FRANKFORT +    CLEAR    N/A N/A N/A CALM      30.10S
GREENWOOD *+   CLEAR     68  66  94 CALM      30.10S
INDIANAPOLIS   CLEAR     69  66  90 SW3       30.08S
-EAGLE CREEK   CLEAR     69  67  93 CALM      30.09R
KOKOMO *+      CLEAR     66  63  88 S5        30.09R
MARION +       PTCLDY    66  60  81 CALM      30.10R
MT COMFORT *+  CLEAR     66 N/A N/A CALM      30.10S
SHELBYVILLE    CLEAR     67  64  90 S3        30.09S FOG
ZIONSVILLE +   CLEAR     64  61  90 CALM      30.10S FOG

$$

INZ033-034-041-042-049-050-058-059-021000-
EAST CENTRAL INDIANA

CITY           SKY/WX    TMP DP  RH WIND       PRES   REMARKS
MUNCIE         CLEAR     70  66  87 SW5       30.10R

$$

INZ060-061-067>069-081>083-085>088-021000-
SOUTHWEST INDIANA

CITY           SKY/WX    TMP DP  RH WIND       PRES   REMARKS
EVANSVILLE     CLEAR     70  68  93 CALM      30.09S FOG
HUNTINGBURG *+ CLEAR     66  64  94 CALM      30.10S
WASHINGTON +   CLEAR     66  63  87 CALM      30.08S FOG

$$

INZ062-063-066-070>080-084-089>092-021000-
SOUTH CENTRAL AND SOUTHEAST INDIANA

CITY           SKY/WX    TMP DP  RH WIND       PRES   REMARKS
BLOOMINGTON    CLEAR     66  64  93 CALM      30.11R FOG
MADISON *+       N/A     64  63  94 CALM      30.13S VSB 1/4
NORTH VERNON + CLEAR     66  66 100 CALM      30.12R FOG
SEYMOUR +      FOG       66  66 100 CALM      30.10R VSB 1/2

$$




USA.gov is the U.S. government's official web portal to all federal, state and local government web resources and services.